Погода Шамахы

Погода Шамахы : погода сейчас, прогноз погоды и архив. Всё, что Вы хотите узнать о погоде Шамахы!

Поиск расширенной информации на нашем сайте:

Другие новости

Новости СМИ2

Главная страница сайта

Новости сайта

03.07.2017

Напоминаем, что на нашем специализированном сайте Метеоцентр.Азия вы можете получить высокодетализированные автоматические прогнозы погоды по пунктам России, СНГ и мира в авиационном формате (включающие направление и скорость ветра, видимость, явления погоды, количество и форму облачности, нижнюю и верхнюю границу облачности).


Погода Шамахы - сегодня

Время (UTC), дата Ветер
(°,м/с) 
Видим.   Явления Облачность Т
(°С)
Тd
(°С)
f(%) Тe
(°С)
Pmin
(гПа)
dP
(гПа)
Po
(мм)
O2
(г/м3)
Тmin Tmax R s Состояние
почвы
15 17.11.18 260 (З) 0200 м  туман  ?/?  
+8.3 +8.1 99 +8  1024.3  0.4  694  270           
18 17.11.18 050 (СВ) 0200 м  туман  ?/?  
+7.8 +7.6 99 +9  1025.8  0.8  695  271    +9.3  0.4     
21 17.11.18 120 (ЮВ) 0200 м  туман  ?/?  
+7.2 +7 99 +7  1025.6  -0.2  695  271           
00 18.11.18 090 (В) 0200 м  туман  ?/?  
+6.5 +6.3 99 +7  1025.6  695  272           
03 18.11.18 тихо ()   0200 м  туман  ?/?  
+5.7 +5.2 97 +6  1026.2  -0.2  695  273           
09 18.11.18 210 (ЮЗ) 4000 м  дымка{туман}  10/10 600 м 
[Sc]
+6.9 +4.6 85 +7  1026.6  -0.3  695  272           
12 18.11.18 200 (Ю) 4000 м  дымка  10/10 600 м 
[Sc]
+7 +4.6 85 +8  1025.9  -0.2  695  272           
21 18.11.18 170 (Ю) 0200 м  туман  ?/?  
+4.5 +4.3 99 +5  1026.8  -0.3  695  275           
00 19.11.18 170 (Ю) 0200 м  туман  ?/?  
+4.4 +3.9 97 +5  1027.9  0.6  696  275           
03 19.11.18 250 (З) 0200 м  туман  ?/?  
+3.8 +2.8 93 +3  1029  0.4  696  276           
09 19.11.18 220 (ЮЗ) 20000 м    10/10 600 м 
[Sc]
+7.3 +3.6 77 +6  1028  0.2  696  273           
12 19.11.18 180 (Ю) 20000 м    10/10 600 м 
[Sc]
+6.1 +4 86 +5  1028.6  -0.2  696  274           
21 19.11.18 260 (З) 0200 м  туман  ?/?  
+4.1 +3.9 99 +4  1029.1  -0.9  696  276           
00 20.11.18 240 (ЮЗ) 0200 м  туман  ?/?  
+3.9 +3.7 99 +3  1028.8  -0.3  696  276           
06 20.11.18 260 (З) 20000 м    5/0 верхняя 
[Ci ing]
+4.6 +1.8 82 +2  1025.3  -0.6  694  275  +2.2         
09 20.11.18 260 (З) 20000 м    3/3 1000 м 
[Cu hum]
+7.9 +4.5 79 +6  1022.8  -1.7  693  270           
12 20.11.18 260 (З) 20000 м    1/0 верхняя 
[Ci fib]
+7.7 +3.4 74 +6  1021.8  -1  692  271           
15 20.11.18 260 (З) 0200 м  туман  ?/?  
+5.3 +5.1 99 +4  1020.8  -1.2  691  272           
18 20.11.18 290 (З) 4000 м  дымка{туман}  6/6 600 м 
[Sc]
+4.1 +3.4 95 +5  1020.6  -1  690  273    +8.4       
21 20.11.18 290 (З) 20000 м    4/0 верхняя 
[Ci ing]
+4.5 +2.5 87 +3  1018.4  -1.4  689  273           
00 21.11.18 290 (З) 20000 м    8/8 600 м 
[Sc]
+5 +2.3 83 +2  1017.3  -1.1  689  272           
03 21.11.18 170 (Ю) 20000 м    3/0 верхняя 
[Ci fib]
+4.7 +0.8 76 +6  1017.6  0.3  689  273           
06 21.11.18 130 (ЮВ) 20000 м    4/0 верхняя 
[Ci fib]
+6 +1.2 71 +7  1018.5  0.9  689  271  +3.7         
09 21.11.18 210 (ЮЗ) 20000 м    6/6 600 м 
[Sc]
+8.3 +3.6 72 +8  1018.4  0.6  690  269           
12 21.11.18 190 (Ю) 20000 м    10/10 600 м 
[Sc]
+7.6 +4.8 82 +9  1017.9  -0.5  689  269           
Время (UTC), дата Ветер
(°,м/с) 
Видим.   Явления Облачность Т
(°С)
Тd
(°С)
f(%) Тe
(°С)
Pmin
(гПа)
dP
(гПа)
Po
(мм)
O2
(г/м3)
Тmin Tmax R s Состояние
почвы

Для получения пояснительной информации подведите курсор к названию столбца.

ПОГОДА Шамахы - архив

Всё, что Вы хотите узнать о погоде Шамахы - удобно и подробно!

Выберите нужную дату (начиная с 1 января 2015* года) и нажмите кнопку "Найти".
Будут отображены архивные сводки погоды по пункту Шамахы, начиная с указанной даты.


Отображать данные в формате CSV (для использования в таблицах Excel)


Внимание! Наш архив погоды предназначен исключительно для личного некоммерческого использования в познавательных целях. Если Вам необходимы официальные справки о состоянии погоды (для производственных, юридических, коммерческих и т.п. целей), обращайтесь в органы Росгидромета.

*Примечание: данная дата относится к архиву по метеостанциям СССР (Россия, СНГ, Балтия).
Архив по метеостанциям Зарубежной Европы и Азии (кроме Китая) хранится 10 дней, по другим регионам земного шара (Китай, Африка, Америка, Австралия, Океания) - 1 день.

Шамахы - район местоположения метеостанции


Название, широта, долгота, высота метеостанции:
Шамахы 40.6°ш. 48.6°д. 749 м над ур. моря [Азербайджан]

Дополнительная информация

В oтличие oт бoльшинства пoгoдных сайтoв мы публикуем пoдрoбную метеoинфoрмацию в детальнoм прoфессиoнальнoм фoрмате.

Характеристики температуры и влажнoсти вoздуха измеряются на высoте 2 м в тени вдали oт зданий и деревьев.
Скoрoсть ветра измеряется на высoте 10 м (на урoвне рoста челoвека скoрoсть ветра ниже в 1.5-2 раза). Если метеoстанция нахoдится в гoрoде или в лесу, тo скoрoсть ветра занижена на 2-4 м/с пo сравнению с oткрытым местoм. Скoрoсть ветра над акватoриями крупных рек и oзёр, а также на вершинах хoлмoв на 2-5 м/с выше, чем в oбычных услoвиях.
Атмoсфернoе давление в разных тoчках местнoсти мoжет значительнo oтличаться oт давления на метеoстанции, в зависимoсти oт услoвий рельефа (при пoдъёме на 10 м давление пoнижается примернo на 1 мм рт.ст.).